Content
SEND FEEDBACK

Daily
Averages
Monthly
Summary
United States of America

SOUTH LAKE TAHOE, CALIFORNIA


Home > North America > United States > California
Elevation: 6263 feet     Latitude: 38 53N     Longitude: 119 59W

WEATHER
 
SELECT A DAY
Number of Records: 174,306;   Date Range: 1/1/95 - 7/20/14
 
SHARE

PRINT THIS DATA

[ ← Previous Day ]
WEATHER ALMANAC - APRIL 10, 2013
[ Next Day → ]
[ °C ]   °F
Weather ElementAverageHighLow
Temperature48.8 °F64.9 °F (3:53 pm)30 °F (6:53 am)
Dewpoint26.4 °F33.1 °F (4:53 pm)19 °F (1:53 am)
Humidity44.5 %69 % (6:53 am)26 % (3:53 pm)
Barometer30.17 in30.29 in (7:53 am)30.04 in (11:53 pm)
Wind Speed4.8 mph10.4 mph (11:53 am)
Wind Gust17.3 mph (11:53 am)
Weather ElementAverage
Visibility10 mi
Wind DirectionESE (102.7 °)

Weather ElementTotal
Precipitation---
Heating Degree Days17.6 (Base 65)
Averaged from 22 records on April 10, 2013
WEATHER CONDITIONS BREAKOUT
WIND DIRECTION BREAKOUT
WEATHER BY HOUR - APRIL 10, 2013
[ °C ]   °F
Local TimeTemperatureDewpointHumidityBarometerVisibilityWind DirectionWind SpeedGust SpeedPrecipitationEventsConditions
1:53 AM39.9 °F19.0 °F43 %30.20 in10.0 miNorth (350°)4.6 mphClear
2:53 AM37.9 °F21.0 °F51 %30.18 in10.0 miCalmClear
3:53 AM35.1 °F21.9 °F59 %30.19 in10.0 miCalmClear
4:53 AM33.1 °F21.9 °F64 %30.20 in10.0 miSSW (200°)3.5 mphClear
5:53 AM30.9 °F21.0 °F67 %30.23 in10.0 miCalmClear
6:53 AM30.0 °F21.0 °F69 %30.27 in10.0 miCalmClear
7:53 AM34.0 °F21.9 °F61 %30.29 in10.0 miSouth (180°)6.9 mphClear
8:53 AM45.0 °F23.0 °F42 %30.26 in10.0 miSSE (160°)5.8 mphClear
10:53 AM55.9 °F25.0 °F30 %30.25 in10.0 miNE (50°)5.8 mphClear
11:53 AM57.9 °F25.0 °F28 %30.24 in10.0 miNE (40°)10.4 mph17.3 mphClear
12:53 PM61.0 °F27.0 °F27 %30.21 in10.0 miNE (40°)6.9 mphClear
1:53 PM61.0 °F28.0 °F29 %30.19 in10.0 miVariable5.8 mphClear
2:53 PM63.0 °F28.0 °F27 %30.16 in10.0 miNNE (20°)9.2 mphClear
3:53 PM64.9 °F28.9 °F26 %30.12 in10.0 miVariable6.9 mphPartly Cloudy
4:53 PM62.1 °F33.1 °F34 %30.12 in10.0 miSSW (210°)10.4 mph16.1 mphPartly Cloudy
5:53 PM61.0 °F32.0 °F34 %30.12 in10.0 miVariable4.6 mphScattered Clouds
6:53 PM57.9 °F27.0 °F31 %30.14 in10.0 miCalmClear
7:53 PM53.1 °F30.0 °F41 %30.14 in10.0 miSSW (200°)5.8 mphClear
8:53 PM51.1 °F30.0 °F44 %30.10 in10.0 miSSW (210°)5.8 mphClear
9:53 PM50.0 °F32.0 °F50 %30.09 in10.0 miSSW (210°)3.5 mphClear
10:53 PM45.0 °F32.0 °F60 %30.06 in10.0 miSouth (180°)5.8 mphScattered Clouds
11:53 PM44.1 °F32.0 °F63 %30.04 in10.0 miSSW (210°)3.5 mphMostly Cloudy
Hourly data recorded from KTVL, located miles away from South Lake Tahoe, California







STORIES FROM OUR PARTNERS